Date String (YYYY-MM-DD hh:mm:ss) UTC,Instrument flags,Ambient pressure (hPa),Sample flow (lpm),Bypass flow (lpm),Sample temperature (°C),Ambient temperature (°C),ASC tube jacket temperature (°C),LED temperature (°C),Box temperature (°C),Sample RH (%),Span deviation,Mass concentration (μg/m³),Mass concentration (μg/m³),Mass concentration (μg/m³)
DateTimeUTC,F1_M11,P_M11,Q1_M11,Q2_M11,T1_M11,T2_M11,T3_M11,T4_M11,T5_M11,U1_M11,ZSPAN_M11,X2_M11,X0_M11,X1_M11
2021-08-20 11:00:00,,0824.3,5.01,0.00,30.1,29.0,00.0,39.2,31.8,22.6,0000.0,0001.04,0001.64,0000.81
2021-08-20 11:01:00,,0824.3,4.99,0.00,30.1,29.0,00.0,39.2,31.8,22.5,0000.0,0001.05,0001.71,0000.76
2021-08-20 11:02:00,,0824.3,5.00,0.00,30.1,29.1,00.0,39.2,31.8,22.7,0000.0,0001.05,0001.77,0000.72
2021-08-20 11:03:00,,0824.4,5.00,0.00,30.1,29.1,00.0,39.2,31.8,22.5,0000.0,0001.04,0001.83,0000.67
2021-08-20 11:04:00,,0824.3,5.00,0.00,30.1,29.1,00.0,39.2,31.7,22.0,0000.0,0001.03,0001.90,0000.63
2021-08-20 11:05:00,,0824.3,4.99,0.00,30.1,29.1,00.0,39.2,31.7,22.1,0000.0,0001.02,0001.87,0000.59
2021-08-20 11:06:00,,0824.3,5.01,0.00,30.1,29.1,00.0,39.2,31.8,22.3,0000.0,0000.99,0001.80,0000.57
2021-08-20 11:07:00,,0824.4,4.99,0.00,30.1,29.1,00.0,39.2,31.8,22.3,0000.0,0000.98,0001.79,0000.57
2021-08-20 11:08:00,,0824.4,5.02,0.00,30.1,29.1,00.0,39.2,31.8,22.4,0000.0,0000.97,0001.85,0000.59
2021-08-20 11:09:00,,0824.3,4.99,0.00,30.1,29.1,00.0,39.2,31.7,22.1,0000.0,0000.97,0002.28,0000.61
2021-08-20 11:10:00,,0824.3,5.00,0.00,30.0,29.2,00.0,39.3,31.8,21.9,0000.0,0000.98,0002.29,0000.63
2021-08-20 11:11:00,,0824.4,5.00,0.00,30.0,29.1,00.0,39.3,31.7,21.6,0000.0,0001.01,0002.32,0000.64
2021-08-20 11:12:00,,0824.4,4.99,0.00,30.0,29.1,00.0,39.3,31.7,21.4,0000.0,0000.97,0002.19,0000.65
2021-08-20 11:13:00,,0824.4,5.01,0.00,30.0,29.1,00.0,39.3,31.7,21.2,0000.0,0000.95,0002.19,0000.66
2021-08-20 11:14:00,,0824.4,5.01,0.00,30.0,29.1,00.0,39.3,31.7,21.4,0000.0,0000.93,0002.14,0000.67
2021-08-20 11:15:00,,0824.4,4.99,0.00,30.0,29.1,00.0,39.3,31.7,21.4,0000.0,0000.92,0002.06,0000.68
2021-08-20 11:16:00,,0824.4,5.00,0.00,30.0,29.1,00.0,39.3,31.8,21.3,0000.0,0000.91,0002.01,0000.70
2021-08-20 11:17:00,,0824.4,5.00,0.00,30.1,29.1,00.0,39.3,31.8,21.2,0000.0,0000.90,0001.99,0000.71
2021-08-20 11:18:00,,0824.5,5.00,0.00,30.0,29.1,00.0,39.3,31.8,21.0,0000.0,0000.91,0002.00,0000.73
2021-08-20 11:19:00,,0824.5,5.00,0.00,30.0,29.1,00.0,39.3,31.8,21.3,0000.0,0000.93,0001.90,0000.74
2021-08-20 11:20:00,,0824.5,5.00,0.00,30.0,29.1,00.0,39.3,31.8,21.1,0000.0,0000.95,0001.39,0000.76
2021-08-20 11:21:00,,0824.6,5.00,0.00,30.0,29.1,00.0,39.3,31.8,21.1,0000.0,0001.00,0001.48,0000.79
2021-08-20 11:22:00,,0824.5,5.01,0.00,30.0,29.1,00.0,39.3,31.8,21.9,0000.0,0001.01,0001.52,0000.81
2021-08-20 11:23:00,,0824.6,5.00,0.00,30.0,29.1,00.0,39.3,31.7,22.1,0000.0,0000.99,0001.50,0000.80
2021-08-20 11:24:00,,0824.5,4.99,0.00,30.1,29.1,00.0,39.3,31.8,21.4,0000.0,0000.98,0001.42,0000.80
2021-08-20 11:25:00,,0824.6,5.00,0.00,30.1,29.1,00.0,39.3,31.8,20.9,0000.0,0001.02,0001.50,0000.82
2021-08-20 11:26:00,,0824.7,5.00,0.00,30.0,29.1,00.0,39.3,31.7,20.9,0000.0,0001.03,0001.53,0000.83
2021-08-20 11:27:00,,0824.7,5.00,0.00,30.0,29.1,00.0,39.3,31.7,20.7,0000.0,0001.05,0001.59,0000.84
2021-08-20 11:28:00,,0824.8,5.00,0.00,30.0,29.1,00.0,39.3,31.8,20.5,0000.0,0001.07,0001.70,0000.84
2021-08-20 11:29:00,,0824.8,5.00,0.00,30.1,29.1,00.0,39.3,31.8,20.7,0000.0,0001.08,0001.72,0000.83
2021-08-20 11:30:00,,0824.7,5.01,0.00,30.1,29.1,00.0,39.3,31.8,20.9,0000.0,0001.09,0001.76,0000.83
2021-08-20 11:31:00,,0824.8,5.00,0.00,30.1,29.1,00.0,39.3,31.7,20.7,0000.0,0001.08,0001.75,0000.82
2021-08-20 11:32:00,,0824.8,4.99,0.00,30.1,29.1,00.0,39.3,31.8,20.4,0000.0,0001.06,0001.68,0000.82
2021-08-20 11:33:00,,0824.8,5.00,0.00,30.1,29.1,00.0,39.3,31.8,20.2,0000.0,0001.07,0001.62,0000.85
2021-08-20 11:34:00,,0824.9,5.00,0.00,30.1,29.2,00.0,39.3,31.8,20.1,0000.0,0001.12,0001.65,0000.90
2021-08-20 11:35:00,,0824.9,5.00,0.00,30.1,29.2,00.0,39.3,31.8,20.2,0000.0,0001.18,0001.76,0000.94
2021-08-20 11:36:00,,0824.9,5.00,0.00,30.1,29.2,00.0,39.3,31.8,20.5,0000.0,0001.21,0001.74,0000.97
2021-08-20 11:37:00,,0824.9,5.00,0.00,30.1,29.2,00.0,39.3,31.9,20.8,0000.0,0001.24,0001.73,0001.01
2021-08-20 11:38:00,,0824.9,5.01,0.00,30.1,29.2,00.0,39.3,31.8,20.7,0000.0,0001.26,0001.75,0001.01
2021-08-20 11:39:00,,0824.9,5.00,0.00,30.1,29.2,00.0,39.3,31.9,21.0,0000.0,0001.34,0001.91,0001.05
2021-08-20 11:40:00,,0824.9,4.99,0.00,30.1,29.2,00.0,39.3,31.8,20.1,0000.0,0001.41,0002.03,0001.11
2021-08-20 11:41:00,,0824.9,4.99,0.00,30.1,29.2,00.0,39.3,31.8,19.7,0000.0,0001.48,0002.14,0001.17
2021-08-20 11:42:00,,0825.0,5.00,0.00,30.1,29.2,00.0,39.3,31.8,19.7,0000.0,0001.54,0002.20,0001.24
2021-08-20 11:43:00,,0824.9,5.01,0.00,30.1,29.2,00.0,39.3,31.9,19.6,0000.0,0001.63,0002.39,0001.32
2021-08-20 11:44:00,,0825.0,4.99,0.00,30.1,29.2,00.0,39.3,31.8,19.5,0000.0,0001.74,0002.60,0001.39
2021-08-20 11:45:00,,0825.1,4.99,0.00,30.1,29.2,00.0,39.3,31.9,19.6,0000.0,0001.83,0002.73,0001.46
2021-08-20 11:46:00,,0825.2,5.01,0.00,30.1,29.2,00.0,39.3,31.9,19.9,0000.0,0001.92,0002.85,0001.54
2021-08-20 11:47:00,,0825.2,5.01,0.00,30.1,29.2,00.0,39.3,31.9,19.8,0000.0,0001.99,0002.94,0001.61
2021-08-20 11:48:00,,0825.2,5.00,0.00,30.1,29.2,00.0,39.3,31.8,19.6,0000.0,0002.06,0003.00,0001.69
2021-08-20 11:49:00,,0825.2,4.99,0.00,30.1,29.1,00.0,39.3,31.8,19.1,0000.0,0002.21,0003.12,0001.86
2021-08-20 11:50:00,,0825.2,5.00,0.00,30.1,29.1,00.0,39.3,31.8,19.0,0000.0,0002.36,0003.17,0002.05
2021-08-20 11:51:00,,0825.1,5.00,0.00,30.1,29.1,00.0,39.3,31.8,18.6,0000.0,0002.55,0003.41,0002.26
2021-08-20 11:52:00,,0825.1,4.99,0.00,30.1,29.1,00.0,39.3,31.8,18.8,0000.0,0002.74,0003.62,0002.45
2021-08-20 11:53:00,,0825.1,5.01,0.00,30.1,29.2,00.0,39.3,31.8,17.7,0001.9,0003.02,0003.93,0002.73
2021-08-20 11:54:00,,0825.1,4.99,0.00,30.1,29.1,00.0,39.3,31.8,18.0,0002.7,0003.17,0004.06,0002.95
2021-08-20 11:55:00,,0825.1,5.00,0.00,30.1,29.1,00.0,39.3,31.8,17.9,0002.7,0003.30,0004.27,0003.15
2021-08-20 11:56:00,,0825.1,5.01,0.00,30.1,29.1,00.0,39.3,31.9,17.7,0003.1,0003.44,0004.55,0003.29
2021-08-20 11:57:00,,0825.0,5.00,0.00,30.1,29.1,00.0,39.3,31.8,17.1,0003.0,0003.62,0005.02,0003.45
2021-08-20 11:58:00,,0825.1,5.00,0.00,30.1,29.1,00.0,39.3,31.8,16.7,0002.6,0003.82,0005.69,0003.66
2021-08-20 11:59:00,,0825.0,5.01,0.00,30.1,29.1,00.0,39.3,31.8,17.1,0002.5,0004.03,0006.21,0003.87
